ONEWEB-0357 (49219 NORAD) Tracking and Keplerian Element Data

This shows tracking and keplerian element data for the satellite.

Feedback or suggestion? Click here.




ElementValue
Catalog49219
NameONEWEB-0357
Epoch Orbit367
Epoch Day287.91667824
Epoch Year2021
RAAN317.5415
Inclination87.2164
Eccentricity0.0019936
Argument of Perigee185.185
Mean Anonmoly331.7245
Mean Motion14.94230095
Decay Rate-0.01300878
L11 49219U 21083AK 21287.91667824 -.01300878 00000-0 -13117+0 0 9993
L22 49219 87.2164 317.5415 0019936 185.1850 331.7245 14.94230095 3675

Live tracking and technical data element details for ONEWEB-0357 (NORAD 49219). ONEWEB-0357 can be tracked NOW for your location showing map with azimuth and elevation plus other details from your city location.

Track the satellite on the map from your city or location and see movement details for azimuth, elevation, latitude, longitude, range, height, and movement on the map or in text.







IsCatalogInMostPopularTable: catalog: 49219, numindb: 8
Update: records affected: 1



GetName: 49219 ONEWEB-0357

Hit Count: updated at: Tue, 19 Oct 2021 09:13:01 GMT